Regional Weather Roundup
Issued by NWS

Home | Current Version | Previous Version | Graphics & Text | Print | Product List | Glossary Off
Versions: 1 2 3 4 5 6 7 8 9 10 11 12 13 14 15 16 17 18 19 20 21 22 23 24 25 26 27 28 29 30 31 32 33 34 35 36 37 38 39 40 41 42 43 44 45 46 47 48 49 50

000
ASUS43 KFSD 251902
RWRSD

WEATHER ROUNDUP FOR SOUTH DAKOTA
NATIONAL WEATHER SERVICE SIOUX FALLS SD
100 PM CST SUN JAN 25 2015

NOTE: "FAIR" INDICATES FEW OR NO CLOUDS BELOW 12,000 FEET WITH NO
SIGNIFICANT WEATHER AND/OR OBSTRUCTIONS TO VISIBILITY.


SDZ001>005-009-010-012>017-252000-
NORTHWEST AND NORTH CENTRAL SOUTH DAKOTA

CITY           SKY/WX    TMP DP  RH WIND       PRES   REMARKS
BUFFALO          N/A     43  26  51 W10       29.90F
FAITH            N/A     42  26  53 W7        29.98F
MOBRIDGE       CLOUDY    40  31  70 NW9       29.98S
$$

SDZ012>016-024>037-041>051-057-063-072>074-252000-
SOUTHWEST AND SOUTH CENTRAL SOUTH DAKOTA

CITY           SKY/WX    TMP DP  RH WIND       PRES   REMARKS
RAPID CTY ARPT CLOUDY    47  18  31 S3        30.01F
PIERRE         PTSUNNY   41  31  67 W16       30.02F
CUSTER         CLOUDY    39  24  55 W15       30.02S
PHILIP         SUNNY     44  27  51 NW8       30.04F
PINE RIDGE     SUNNY     45  29  53 W9        30.05F
WINNER         CLOUDY    40  31  70 NW15      30.04F
$$

SDZ004>011-016>023-039-040-252000-
NORTHEAST SOUTH DAKOTA

CITY           SKY/WX    TMP DP  RH WIND       PRES   REMARKS
ABERDEEN       CLOUDY    29  23  78 CALM      30.03F
WATERTOWN      CLOUDY    30  23  75 N6        30.00S WCI  24
SISSETON         N/A     25  19  78 NW6       30.03S WCI  18
$$

SDZ017-020-022-023-036>040-048>070-252000-
SOUTHEAST SOUTH DAKOTA

CITY           SKY/WX    TMP DP  RH WIND       PRES   REMARKS
SIOUX FALLS    CLOUDY    35  32  88 N9        30.01S WCI  28
HURON          CLOUDY    32  29  88 NW7       30.03F WCI  26
MITCHELL       CLOUDY    35  32  88 NW6       30.05F
YANKTON        CLOUDY    36  30  80 NW10      30.06S
$$

ABBREVIATIONS USED IN REMARKS
   TC - TEMPERATURE IN CELSIUS
  WCI - WIND CHILL INDEX
   HX - HEAT INDEX
  VSB - VISIBILITY



USA.gov is the U.S. government's official web portal to all federal, state and local government web resources and services.